[[{"header":{"parameterUnit":"m.s-1","parameterCategory":1,"la1":30.2991,"la2":30.254,"lo1":-89.0895,"lo2":-89.0444,"dy":0.0017,"dx":0.0017,"nx":28,"ny":28,"refTime":"2025-03-31T03:00:00:Z","depth":0,"parameterNumber":2,"parameterNumberName":"U-component_of_WINDS"},"data":[0,0,0,0,0,0,0,0,0,0,0,0,0,0,0,0,0,0,0,0,0,0,0,0,0,0,0,0,0,0,0,0,0,0,0,0,0,0,0,0,0,0,0,0,0,0,0,0,0,0,0,0,0,0,0,0,0,0,-0.2746,-0.2746,0,-0.2713,-0.2712,-0.2712,-0.2681,-0.2681,-0.268,-0.268,-0.2646,-0.2646,-0.2645,0,0,0,0,0,0,0,0,0,0,0,0,0,-0.2783,-0.2782,-0.2746,-0.2746,-0.2746,-0.2713,-0.2712,-0.2712,-0.2681,-0.2681,-0.268,-0.268,-0.2647,-0.2646,-0.2645,0,0,0,0,0,0,0,0,0,0,0,0,0,-0.276,-0.2782,-0.2746,-0.2726,-0.2724,-0.2713,-0.2712,-0.2712,-0.2681,-0.2681,-0.268,-0.268,-0.2647,-0.2646,-0.2645,-0.2651,0,0,-0.2643,-0.2642,0,0,0,0,0,0,0,0,-0.2761,-0.2759,-0.273,-0.2728,-0.2725,-0.2701,-0.2713,-0.2692,-0.2682,-0.2698,-0.268,-0.2679,-0.2665,-0.2663,-0.2658,-0.265,-0.2648,-0.2643,-0.2642,-0.2642,-0.2642,0,0,0,0,0,0,0,-0.2763,-0.276,-0.2733,-0.2729,-0.2727,-0.2718,-0.2715,-0.2709,-0.2685,-0.2696,-0.2694,-0.269,-0.2664,-0.2658,-0.2657,-0.2648,-0.2643,-0.2642,-0.2641,-0.2641,-0.264,-0.264,0,0,0,0,0,0,-0.2768,-0.2762,-0.2734,-0.2732,-0.2742,-0.2718,-0.2714,-0.2709,-0.2685,-0.2681,-0.2691,-0.2689,-0.266,-0.2658,-0.2655,-0.2659,-0.2642,-0.2641,-0.2641,-0.2639,-0.264,-0.264,0,0,0,0,0,0,-0.2769,-0.2766,-0.2736,-0.2746,-0.2742,-0.2718,-0.2713,-0.2709,-0.2703,-0.2681,-0.2676,-0.269,-0.266,-0.2656,-0.2652,-0.2657,-0.2641,-0.264,-0.2639,-0.2639,-0.264,-0.2667,0,0,0,0,0,0,-0.277,-0.2766,-0.2769,-0.2746,-0.2741,-0.2733,-0.2713,-0.2708,-0.2702,-0.2699,-0.2679,-0.2675,-0.2659,-0.2653,-0.2651,-0.2656,-0.2639,-0.2638,-0.2639,-0.264,-0.2665,-0.2668,-0.2671,0,0,0,0,0,-0.2771,-0.2779,-0.2769,-0.2766,-0.2744,-0.2734,-0.2731,-0.2712,-0.2703,-0.2705,-0.2689,-0.2675,-0.2657,-0.2653,-0.265,-0.2655,-0.2638,-0.2639,-0.264,-0.2664,-0.2668,-0.2671,0,0,0,0,0,0,-0.2803,-0.2775,-0.2765,-0.2765,-0.2752,-0.2728,-0.2731,-0.2717,-0.2706,-0.2704,-0.2682,-0.2677,-0.2674,-0.2664,-0.266,-0.2658,-0.2645,-0.2646,-0.2665,-0.2668,-0.2671,-0.2673,-0.2639,0,0,0,0,0,-0.281,-0.2804,-0.278,-0.2783,-0.2776,-0.2755,-0.275,-0.2736,-0.2721,-0.2716,-0.2701,-0.2687,-0.2677,-0.2672,-0.2663,-0.2663,-0.2657,-0.2665,-0.2668,-0.267,-0.2671,-0.2668,-0.267,-0.2644,-0.2644,-0.2644,0,0,-0.2825,-0.2809,-0.2807,-0.2789,-0.2777,-0.277,-0.275,-0.2745,-0.274,-0.2715,-0.2709,-0.2697,-0.268,-0.2678,-0.2676,-0.2669,-0.2676,-0.2671,-0.2674,-0.2673,-0.2669,-0.2671,-0.2674,-0.2644,-0.2644,-0.2644,0,0,-0.2848,-0.2836,-0.2835,-0.2823,-0.2805,-0.279,-0.279,-0.2768,-0.2759,-0.2752,-0.2733,-0.2726,-0.2711,-0.2699,-0.2691,-0.2706,-0.2692,-0.2703,-0.2718,-0.2715,-0.2717,-0.2719,-0.2722,-0.2724,-0.2704,-0.2704,-0.2704,0,-0.2869,-0.2858,-0.2837,-0.2832,-0.2824,-0.28,-0.2798,-0.2788,-0.2768,-0.2762,-0.2755,-0.2733,-0.2721,-0.2713,-0.2716,-0.2711,-0.2709,-0.2706,-0.2718,-0.272,-0.2721,-0.2724,-0.2726,-0.2705,-0.2705,-0.2705,-0.2705,0,-0.2883,-0.2876,-0.2878,-0.2857,-0.2849,-0.2846,-0.2824,-0.2818,-0.2804,-0.279,-0.2782,-0.2765,-0.275,-0.2748,-0.2735,-0.2738,-0.2734,-0.2723,-0.271,-0.2725,-0.2728,-0.2729,-0.2707,-0.2707,-0.2706,-0.2706,0,0,-0.2927,-0.2893,-0.2894,-0.2883,-0.286,-0.2854,-0.2848,-0.2833,-0.2828,-0.2814,-0.2808,-0.2794,-0.2783,-0.2774,-0.2759,-0.2757,-0.2767,-0.2745,-0.2745,-0.2749,-0.2766,-0.2774,-0.2776,-0.2757,-0.2757,-0.2757,-0.2767,0,-0.2945,-0.2934,-0.2914,-0.2909,-0.2901,-0.2877,-0.2872,-0.2857,-0.2842,-0.2833,-0.2816,-0.2806,-0.2793,-0.2787,-0.2783,-0.2766,-0.277,-0.2766,-0.275,-0.275,-0.2755,-0.2778,-0.2787,-0.2797,-0.2768,-0.2768,-0.2768,0,-0.2965,-0.2951,-0.2946,-0.292,-0.2916,-0.2912,-0.2895,-0.2887,-0.2868,-0.2857,-0.2845,-0.2829,-0.282,-0.2808,-0.2795,-0.2793,-0.2785,-0.2775,-0.2775,-0.2773,-0.276,-0.2775,-0.28,-0.2801,-0.277,-0.277,-0.277,0,-0.2995,-0.2975,-0.2969,-0.2961,-0.2932,-0.2929,-0.2916,-0.2897,-0.2888,-0.2873,-0.2867,-0.2851,-0.2843,-0.283,-0.2809,-0.2803,-0.2798,-0.2784,-0.2787,-0.2788,-0.2788,-0.2788,-0.2811,-0.2784,-0.2784,-0.2784,-0.2784,0,-0.3017,-0.3014,-0.2981,-0.2977,-0.2973,-0.2948,-0.2944,-0.293,-0.2912,-0.2904,-0.2882,-0.2875,-0.2848,-0.2836,-0.282,-0.281,-0.2807,-0.2797,-0.2792,-0.2799,-0.28,-0.2793,-0.2792,-0.2784,-0.2784,-0.2784,-0.2784,0,-0.3051,-0.3029,-0.3019,-0.2992,-0.2985,-0.2982,-0.2958,-0.2952,-0.2936,-0.2925,-0.2921,-0.2895,-0.2881,-0.2858,-0.2837,-0.2826,-0.2819,-0.2812,-0.2825,-0.2822,-0.2826,-0.2825,-0.2845,-0.2845,-0.2819,-0.282,-0.282,0,-0.3066,-0.3062,-0.3034,-0.3026,-0.3015,-0.3003,-0.2994,-0.2969,-0.296,-0.2936,-0.2933,-0.2917,-0.2902,-0.288,-0.2859,-0.2842,-0.2834,-0.2841,-0.2831,-0.2836,-0.2832,-0.2832,-0.2831,-0.2844,-0.2844,-0.2845,-0.2845,0,-0.3094,-0.3082,-0.307,-0.3052,-0.3041,-0.3026,-0.301,-0.3005,-0.2977,-0.2967,-0.2952,-0.294,-0.2918,-0.2901,-0.2881,-0.2867,-0.2851,-0.2848,-0.2848,-0.2854,-0.2861,-0.2855,-0.2831,-0.2848,-0.2848,-0.2847,-0.2847,-0.2847,-0.3117,-0.3113,-0.3091,-0.3076,-0.3062,-0.3046,-0.3039,-0.3021,-0.3007,-0.2987,-0.2973,-0.2958,-0.2936,-0.2907,-0.2894,-0.2881,-0.2874,-0.2874,-0.2874,-0.2874,-0.2875,-0.2863,-0.2877,-0.2877,-0.2877,-0.2877,-0.2877,0,-0.3143,-0.3128,-0.3115,-0.3092,-0.308,-0.3065,-0.3046,-0.3037,-0.3024,-0.3005,-0.2991,-0.2972,-0.2955,-0.2931,-0.2912,-0.2906,-0.2898,-0.2902,-0.2902,-0.2898,-0.2883,-0.2885,-0.2908,-0.2908,-0.2908,-0.2908,-0.2908,-0.2908,-0.3155,-0.3146,-0.3131,-0.3113,-0.3097,-0.3082,-0.3072,-0.3057,-0.3042,-0.3022,-0.3007,-0.2992,-0.297,-0.2949,-0.2932,-0.2926,-0.2919,-0.2925,-0.2916,-0.2902,-0.29,-0.2897,-0.2898,-0.2924,-0.2924,-0.2932,-0.2932,-0.2932]},{"header":{"parameterUnit":"m.s-1","parameterCategory":1,"la1":30.2991,"la2":30.254,"lo1":-89.0895,"lo2":-89.0444,"dy":0.0017,"dx":0.0017,"nx":28,"ny":28,"refTime":"2025-03-31T03:00:00:Z","depth":0,"parameterNumber":3,"parameterNumberName":"V-component_of_WINDS"},"data":[0,0,0,0,0,0,0,0,0,0,0,0,0,0,0,0,0,0,0,0,0,0,0,0,0,0,0,0,0,0,0,0,0,0,0,0,0,0,0,0,0,0,0,0,0,0,0,0,0,0,0,0,0,0,0,0,0,0,0.4028,0.4028,0,0.4036,0.4036,0.4036,0.4027,0.4026,0.4026,0.4026,0.4035,0.4035,0.4036,0,0,0,0,0,0,0,0,0,0,0,0,0,0.4007,0.4007,0.4028,0.4028,0.4028,0.4036,0.4036,0.4036,0.4027,0.4026,0.4026,0.4026,0.4034,0.4035,0.4036,0,0,0,0,0,0,0,0,0,0,0,0,0,0.4015,0.4007,0.4028,0.4024,0.4024,0.4036,0.4036,0.4036,0.4027,0.4026,0.4026,0.4025,0.4034,0.4035,0.4036,0.4051,0,0,0.4038,0.4039,0,0,0,0,0,0,0,0,0.4015,0.4016,0.4025,0.4025,0.4024,0.403,0.4032,0.4041,0.4027,0.4026,0.4026,0.4025,0.4033,0.4034,0.4037,0.4052,0.4052,0.4038,0.4039,0.4039,0.404,0,0,0,0,0,0,0,0.4014,0.4016,0.4031,0.4025,0.4025,0.4023,0.4024,0.4033,0.4032,0.4026,0.4025,0.4026,0.4033,0.4036,0.4037,0.4052,0.4038,0.4039,0.404,0.404,0.4082,0.4083,0,0,0,0,0,0,0.4014,0.4015,0.4031,0.4031,0.4018,0.4024,0.4025,0.4029,0.4032,0.4032,0.4027,0.4026,0.4035,0.4036,0.4037,0.4057,0.4039,0.404,0.4041,0.4082,0.4082,0.4083,0,0,0,0,0,0,0.4013,0.4015,0.403,0.4023,0.4025,0.4025,0.4029,0.4029,0.4032,0.4033,0.4033,0.403,0.4035,0.4036,0.4048,0.4058,0.404,0.4041,0.4081,0.4082,0.4083,0.4097,0,0,0,0,0,0,0.4013,0.4015,0.4021,0.4023,0.4025,0.4041,0.403,0.4029,0.4033,0.4032,0.4036,0.4036,0.4034,0.4047,0.4049,0.4058,0.4042,0.408,0.4081,0.4083,0.4095,0.4098,0.41,0,0,0,0,0,0.4012,0.4024,0.4021,0.4023,0.4032,0.4041,0.4042,0.404,0.4034,0.404,0.4041,0.4036,0.4056,0.4048,0.4051,0.406,0.408,0.4081,0.4082,0.4094,0.4097,0.41,0,0,0,0,0,0,0.4022,0.4024,0.4021,0.4034,0.4037,0.404,0.4047,0.4043,0.4049,0.4048,0.4045,0.4046,0.4059,0.4061,0.4052,0.4076,0.4067,0.4069,0.4075,0.4078,0.408,0.408,0.4043,0,0,0,0,0,0.4026,0.4033,0.4034,0.4045,0.4047,0.4047,0.4051,0.4049,0.4053,0.4054,0.4056,0.406,0.4068,0.4073,0.408,0.4095,0.4097,0.4103,0.4105,0.4107,0.4109,0.412,0.4123,0.4088,0.4088,0.4088,0,0,0.4033,0.4035,0.404,0.4047,0.405,0.4058,0.4048,0.4057,0.4063,0.4056,0.4068,0.4069,0.4074,0.4089,0.4095,0.409,0.4119,0.4109,0.4111,0.4112,0.4122,0.4125,0.4128,0.4089,0.4089,0.4088,0,0,0.4052,0.4053,0.4064,0.4067,0.4071,0.4071,0.4074,0.4077,0.4078,0.409,0.4085,0.4092,0.4105,0.4109,0.4113,0.4134,0.4131,0.4137,0.4149,0.416,0.4163,0.4165,0.4175,0.4178,0.4138,0.4139,0.4139,0,0.4061,0.4073,0.4069,0.4079,0.4083,0.4077,0.4088,0.4091,0.4098,0.4101,0.4096,0.4113,0.4115,0.4132,0.4137,0.414,0.4144,0.4137,0.4162,0.4165,0.4167,0.4176,0.418,0.4139,0.4139,0.4139,0.4139,0,0.4085,0.4093,0.4101,0.4108,0.4112,0.4123,0.4122,0.4128,0.4126,0.4126,0.414,0.4143,0.4151,0.4154,0.4152,0.4171,0.4168,0.4162,0.4153,0.4171,0.418,0.4183,0.4141,0.414,0.414,0.414,0,0,0.4109,0.4115,0.4118,0.4122,0.4127,0.4134,0.4144,0.4152,0.4158,0.4163,0.4173,0.4184,0.418,0.4184,0.4182,0.4191,0.421,0.4184,0.4184,0.4191,0.4234,0.424,0.4243,0.4208,0.4208,0.4209,0.4234,0,0.4129,0.4147,0.4146,0.4163,0.4172,0.4167,0.4176,0.4181,0.4182,0.419,0.4192,0.4201,0.4193,0.4196,0.4204,0.4206,0.4219,0.4204,0.4218,0.4219,0.4219,0.4248,0.4253,0.4277,0.4237,0.4238,0.4238,0,0.4154,0.4161,0.418,0.4185,0.4189,0.4197,0.4206,0.4213,0.4219,0.4219,0.4225,0.4222,0.4234,0.4224,0.4241,0.4231,0.4237,0.4239,0.424,0.4242,0.4231,0.4252,0.4284,0.4289,0.4243,0.4243,0.4242,0,0.4173,0.4186,0.42,0.4203,0.4209,0.4215,0.4218,0.4224,0.4229,0.4237,0.4241,0.4249,0.4254,0.4261,0.4262,0.4254,0.428,0.4269,0.4282,0.4282,0.4289,0.4289,0.4324,0.429,0.429,0.429,0.429,0,0.4196,0.4208,0.4208,0.4217,0.4231,0.4229,0.4243,0.4245,0.425,0.426,0.4256,0.4265,0.4264,0.4274,0.4274,0.429,0.4291,0.4293,0.4293,0.4295,0.4295,0.4299,0.4298,0.4291,0.4291,0.429,0.429,0,0.4219,0.4219,0.4234,0.4239,0.4241,0.4251,0.4256,0.4264,0.4266,0.4278,0.4281,0.4283,0.4294,0.4295,0.4308,0.4308,0.4328,0.4325,0.4326,0.4326,0.434,0.434,0.4381,0.4387,0.4347,0.4348,0.4348,0,0.4235,0.4244,0.425,0.4257,0.426,0.427,0.4276,0.4275,0.4281,0.429,0.4298,0.4309,0.4318,0.4337,0.434,0.435,0.4349,0.4363,0.4351,0.4352,0.4352,0.4352,0.4354,0.4366,0.4366,0.4366,0.4367,0,0.4263,0.4263,0.4271,0.4281,0.4288,0.4295,0.4302,0.4308,0.4308,0.4316,0.4327,0.4334,0.4348,0.436,0.4371,0.4375,0.4372,0.437,0.4374,0.4376,0.4377,0.4379,0.4335,0.437,0.4369,0.4369,0.4369,0.4369,0.4284,0.4292,0.4299,0.4309,0.4314,0.4321,0.433,0.4333,0.4343,0.4354,0.4353,0.4367,0.4374,0.4388,0.4393,0.4404,0.44,0.4405,0.4406,0.4408,0.4411,0.4374,0.4406,0.4406,0.4406,0.4406,0.4406,0,0.4313,0.4317,0.4327,0.4337,0.4345,0.4341,0.4349,0.4357,0.4369,0.4376,0.4385,0.44,0.4411,0.4416,0.4428,0.4436,0.4435,0.444,0.444,0.4441,0.4413,0.4409,0.444,0.444,0.444,0.444,0.444,0.444,0.4329,0.4345,0.4346,0.4365,0.4369,0.4382,0.4387,0.4394,0.44,0.4417,0.4427,0.4429,0.4436,0.4449,0.446,0.4461,0.4467,0.4472,0.4473,0.4446,0.4443,0.444,0.4436,0.4473,0.4473,0.45,0.4501,0.4501]}]]